TimeAST,TemperatureF,Dew PointF,Humidity,Sea Level PressureIn,VisibilityMPH,Wind Direction,Wind SpeedMPH,Gust SpeedMPH,PrecipitationIn,Events,Conditions,WindDirDegrees,DateUTC
12:00 AM,77.0,69.8,78,30.01,6.2,East,6.9,-,N/A,,Mostly Cloudy,90,2014-01-22 04:00:00
1:00 AM,77.0,71.6,83,30.01,6.2,East,5.8,-,N/A,,Partly Cloudy,100,2014-01-22 05:00:00
2:00 AM,77,71,76,29.99,7,East,6.9,,,Rain,Light Rain Showers,100,2014-01-22 06:00:00
2:00 AM,77.0,69.8,78,29.98,6.2,East,6.9,-,N/A,Rain,Light Rain Showers,100,2014-01-22 06:00:00
3:00 AM,77.0,69.8,78,29.98,6.2,East,9.2,-,N/A,,Partly Cloudy,100,2014-01-22 07:00:00
4:00 AM,77.0,71.6,83,29.98,6.2,East,6.9,-,N/A,,Scattered Clouds,100,2014-01-22 08:00:00
5:00 AM,77,71,76,29.99,22,East,6.9,,,Rain,Light Rain Showers,90,2014-01-22 09:00:00
5:00 AM,77.0,71.6,83,29.98,6.2,East,6.9,-,N/A,Rain,Light Rain Showers,90,2014-01-22 09:00:00
6:00 AM,77.0,69.8,78,29.98,6.2,East,9.2,-,N/A,,Scattered Clouds,90,2014-01-22 10:00:00
7:00 AM,77.0,69.8,78,30.02,6.2,East,5.8,-,N/A,,Mostly Cloudy,100,2014-01-22 11:00:00
8:00 AM,79,71,70,30.05,19,East,6.9,,,,Partly Cloudy,100,2014-01-22 12:00:00
8:00 AM,78.8,71.6,78,30.04,6.2,East,6.9,-,N/A,,Mostly Cloudy,100,2014-01-22 12:00:00
9:00 AM,80.6,71.6,74,30.06,6.2,ESE,9.2,-,N/A,,Scattered Clouds,110,2014-01-22 13:00:00
10:00 AM,80.6,71.6,74,30.06,6.2,ESE,10.4,-,N/A,,Scattered Clouds,120,2014-01-22 14:00:00
11:00 AM,81,72,66,30.07,25,ESE,10.4,,,,Partly Cloudy,120,2014-01-22 15:00:00
11:00 AM,80.6,71.6,74,30.06,6.2,ESE,10.4,-,N/A,,Scattered Clouds,120,2014-01-22 15:00:00
12:00 PM,82.4,71.6,70,30.04,6.2,SE,1.2,-,N/A,,Scattered Clouds,130,2014-01-22 16:00:00
1:00 PM,80.6,71.6,74,30.01,6.2,SE,12.7,-,N/A,,Scattered Clouds,130,2014-01-22 17:00:00
2:00 PM,82,72,65,30.00,31,SE,11.5,,,,Scattered Clouds,130,2014-01-22 18:00:00
2:00 PM,82.4,71.6,70,29.98,6.2,SE,11.5,-,N/A,,Partly Cloudy,130,2014-01-22 18:00:00
3:00 PM,80.6,71.6,74,29.98,6.2,SE,10.4,-,N/A,,Partly Cloudy,130,2014-01-22 19:00:00
4:00 PM,80.6,71.6,74,29.98,6.2,SE,10.4,-,N/A,,Partly Cloudy,130,2014-01-22 20:00:00
5:00 PM,80,72,69,30.01,25,SE,9.2,,,,Scattered Clouds,130,2014-01-22 21:00:00
5:00 PM,80.6,71.6,74,30.01,6.2,SE,9.2,-,N/A,,Partly Cloudy,130,2014-01-22 21:00:00
6:00 PM,78.8,71.6,78,30.01,6.2,SE,8.1,-,N/A,,Partly Cloudy,130,2014-01-22 22:00:00
7:00 PM,78.8,71.6,78,30.04,6.2,ESE,6.9,-,N/A,,Partly Cloudy,120,2014-01-22 23:00:00
8:00 PM,79,72,73,30.06,22,East,3.5,,,,Scattered Clouds,100,2014-01-23 00:00:00
8:00 PM,78.8,71.6,78,30.04,6.2,East,3.5,-,N/A,,Partly Cloudy,100,2014-01-23 00:00:00
9:00 PM,78.8,71.6,78,30.06,6.2,East,4.6,-,N/A,,Scattered Clouds,100,2014-01-23 01:00:00
10:00 PM,77.0,73.4,89,30.09,6.2,SE,5.8,-,N/A,,Mostly Cloudy,130,2014-01-23 02:00:00
11:00 PM,78,73,79,30.09,22,East,5.8,,,,Partly Cloudy,100,2014-01-23 03:00:00
11:00 PM,77.0,73.4,89,30.06,6.2,East,5.8,-,N/A,,Scattered Clouds,100,2014-01-23 03:00:00